Terminal Aerodrome Forecast
Issued by NWS

Home | Current Version | Previous Version | Text Only | Print | Product List | Glossary On
Versions: 1 2 3 4 5 6 7 8 9 10 11 12 13 14 15 16 17 18 19 20 21 22
000
FTUS42 KJAX 170000 AAA
TAFCRG
TAF AMD
KCRG 170028Z 1700/1724 23004KT 6SM -RA BR BKN015 BKN100 OVC150
     FM170300 26003KT P6SM SCT020 OVC120
     FM171400 32006KT P6SM VCSH FEW020 SCT250
     FM171900 05006KT P6SM VCTS SCT035CB=

USA.gov is the U.S. government's official web portal to all federal, state and local government web resources and services.